Voltar ao catálogo

CZ-3A DEB

LostGTO
NORAD 35562·DEBRIS·🇨🇳 China

Lançado Feb 2, 2007 de Xichang Satellite Launch Center

Loading…

TLE

ObsoletoSource: Space-Track

Época: Apr 30, 2011, 09:31 UTC

1 35562U 07003W   11120.39700575 -.00000026  00000-0  10000-3 0  9995
2 35562  23.3951 304.3362 7447673 205.6159  81.1693  1.88146184 19248

Acompanhe CZ-3A DEB em tempo real com AllMySat

Download on the App Store